Auburn-Lewiston, ME

5:36 AM EDT on July 22, 2017 (GMT -0400)
Auburn-Lewiston Municipal

Weather History for KLEW - November, 2013

Change the Weather History Date:

Friday, November 29, 2013

  Actual Average Record
Temperature  
Mean Temperature 18 °F -  
Max Temperature 26 °F 38 °F 57 °F (2003)
Min Temperature 10 °F 23 °F 5 °F (2014)
Degree Days  
Heating Degree Days 47    
Moisture  
Dew Point 5 °F    
Average Humidity 57    
Maximum Humidity 92    
Minimum Humidity 34    
Precipitation  
Precipitation 0.00 in - - ()
Sea Level Pressure  
Sea Level Pressure 30.53 in    
Wind  
Wind Speed 4 mph (NW)    
Max Wind Speed 16 mph    
Max Gust Speed 22 mph    
Visibility 10 miles    
Events      
Averages and records for this station are not official NWS values.
T = Trace of Precipitation, MM = Missing Value Source: NWS Daily Summary

Daily Weather History Graph

Daily Weather History Graph

Search for Another Location

Airport or City:

Trip Planner

Search our weather history database for the weather conditions in past years. The results will help you decide how hot, cold, wet, or windy it might be!

Date:

Astronomy

Nov. 29, 2013 Rise Set
Actual Time 6:53 AM EST 4:04 PM EST
Civil Twilight 6:21 AM EST 4:37 PM EST
Nautical Twilight 5:45 AM EST 5:13 PM EST
Astronomical Twilight 5:11 AM EST 5:47 PM EST
Moon 2:49 AM EST (11/29) 1:53 PM EST (11/29)
Length of Visible Light 10h 15m
Length of Day
9h 10m
Waning Crescent, 14% of the Moon is Illuminated
Nov 29
Waning Crescent
Dec 2
New
Dec 9
First Quarter
Dec 17
Full
Dec 25
Last Quarter

Hourly Weather History & Observations

Time (EST) Temp. Windchill Dew Point Humidity Pressure Visibility Wind Dir Wind Speed Gust Speed Precip Events Conditions
12:15 AM 17.6 °F - 6.8 °F 63% 30.36 in 10.0 mi Calm Calm - N/A   Mostly Cloudy
12:35 AM 17.6 °F - 6.8 °F 63% 30.36 in 10.0 mi Calm Calm - N/A   Overcast
12:55 AM 15.8 °F - 6.8 °F 68% 30.36 in 10.0 mi Calm Calm - N/A   Mostly Cloudy
1:15 AM 17.6 °F - 8.6 °F 68% 30.37 in 10.0 mi Calm Calm - N/A   Partly Cloudy
1:35 AM 17.6 °F - 6.8 °F 63% 30.38 in 10.0 mi Calm Calm - N/A   Clear
1:55 AM 17.6 °F - 8.6 °F 68% 30.38 in 10.0 mi Calm Calm - N/A   Clear
2:15 AM 14.0 °F - 6.8 °F 73% 30.38 in 10.0 mi Calm Calm - N/A   Clear
2:35 AM 15.8 °F - 8.6 °F 73% 30.39 in 10.0 mi Calm Calm - N/A   Clear
2:55 AM 17.6 °F - 10.4 °F 73% 30.39 in 10.0 mi Calm Calm - N/A   Clear
3:15 AM 17.6 °F - 6.8 °F 63% 30.39 in 10.0 mi Calm Calm - N/A   Scattered Clouds
3:35 AM 15.8 °F - 6.8 °F 68% 30.39 in 10.0 mi Calm Calm - N/A   Mostly Cloudy
3:55 AM 14.0 °F - 6.8 °F 73% 30.40 in 10.0 mi Calm Calm - N/A   Partly Cloudy
4:15 AM 14.0 °F - 8.6 °F 79% 30.41 in 10.0 mi Calm Calm - N/A   Clear
4:35 AM 14.0 °F - 10.4 °F 86% 30.41 in 10.0 mi Calm Calm - N/A   Clear
4:55 AM 12.2 °F - 6.8 °F 79% 30.42 in 10.0 mi Calm Calm - N/A   Clear
5:15 AM 12.2 °F - 6.8 °F 79% 30.42 in 10.0 mi Calm Calm - N/A   Clear
5:35 AM 12.2 °F - 8.6 °F 85% 30.44 in 10.0 mi Calm Calm - N/A   Clear
5:55 AM 10.4 °F - 8.6 °F 92% 30.44 in 10.0 mi Calm Calm - N/A   Clear
6:15 AM 15.8 °F 10.2 °F 10.4 °F 79% 30.44 in 10.0 mi NW 3.5 mph - N/A   Clear
6:35 AM 15.8 °F 10.2 °F 6.8 °F 68% 30.45 in 10.0 mi WNW 3.5 mph - N/A   Clear
6:55 AM 17.6 °F 12.3 °F 6.8 °F 63% 30.46 in 10.0 mi WNW 3.5 mph - N/A   Clear
7:15 AM 17.6 °F 10.7 °F 6.8 °F 63% 30.47 in 10.0 mi WNW 4.6 mph - N/A   Clear
7:35 AM 17.6 °F 12.3 °F 6.8 °F 63% 30.48 in 10.0 mi WNW 3.5 mph - N/A   Clear
7:55 AM 17.6 °F 10.7 °F 6.8 °F 63% 30.49 in 10.0 mi WNW 4.6 mph - N/A   Clear
8:15 AM 19.4 °F 7.9 °F 6.8 °F 58% 30.49 in 10.0 mi NW 10.4 mph - N/A   Clear
8:35 AM 19.4 °F 9.5 °F 6.8 °F 58% 30.50 in 10.0 mi NW 8.1 mph - N/A   Clear
8:55 AM 21.2 °F 10.9 °F 6.8 °F 54% 30.50 in 10.0 mi NW 9.2 mph - N/A   Clear
9:15 AM 21.2 °F 10.1 °F 6.8 °F 54% 30.51 in 10.0 mi NW 10.4 mph - N/A   Clear
9:35 AM 21.2 °F 8.3 °F 6.8 °F 54% 30.51 in 10.0 mi NW 13.8 mph 20.7 mph N/A   Clear
9:55 AM 23.0 °F 9.6 °F 3.2 °F 43% 30.52 in 10.0 mi NNW 16.1 mph 21.9 mph N/A   Clear
10:15 AM 23.0 °F 11.1 °F 3.2 °F 43% 30.52 in 10.0 mi NNW 12.7 mph 19.6 mph N/A   Clear
10:35 AM 23.0 °F 11.7 °F 3.2 °F 43% 30.52 in 10.0 mi WNW 11.5 mph 18.4 mph N/A   Clear
10:55 AM 23.0 °F 12.4 °F 1.4 °F 39% 30.51 in 10.0 mi NW 10.4 mph 18.4 mph N/A   Clear
11:15 AM 23.0 °F 13.9 °F 3.2 °F 43% 30.51 in 10.0 mi WNW 8.1 mph - N/A   Clear
11:35 AM 24.8 °F 12.4 °F 3.2 °F 40% 30.51 in 10.0 mi NNW 15.0 mph 19.6 mph N/A   Clear
11:55 AM 24.8 °F 16.1 °F 1.4 °F 36% 30.51 in 10.0 mi NW 8.1 mph 17.3 mph N/A   Clear
12:15 PM 24.8 °F 14.6 °F 1.4 °F 36% 30.51 in 10.0 mi NNW 10.4 mph - N/A   Clear
12:35 PM 24.8 °F 12.9 °F 1.4 °F 36% 30.52 in 10.0 mi NW 13.8 mph - N/A   Clear
12:55 PM 24.8 °F 14.6 °F 1.4 °F 36% 30.52 in 10.0 mi NW 10.4 mph 18.4 mph N/A   Clear
1:15 PM 24.8 °F 14.0 °F -0.4 °F 34% 30.52 in 10.0 mi NW 11.5 mph 18.4 mph N/A   Clear
1:35 PM 24.8 °F 14.0 °F 1.4 °F 36% 30.52 in 10.0 mi NNW 11.5 mph 16.1 mph N/A   Clear
1:55 PM 24.8 °F 15.3 °F 1.4 °F 36% 30.52 in 10.0 mi NW 9.2 mph - N/A   Clear
2:15 PM 26.6 °F 16.2 °F 1.4 °F 34% 30.52 in 10.0 mi NW 11.5 mph 16.1 mph N/A   Clear
2:35 PM 26.6 °F 14.7 °F 1.4 °F 34% 30.54 in 10.0 mi NNW 15.0 mph 18.4 mph N/A   Clear
2:55 PM 24.8 °F 14.0 °F 1.4 °F 36% 30.54 in 10.0 mi NNW 11.5 mph 18.4 mph N/A   Clear
3:15 PM 24.8 °F 14.6 °F 1.4 °F 36% 30.55 in 10.0 mi NNW 10.4 mph - N/A   Clear
3:35 PM 24.8 °F 16.1 °F 3.2 °F 40% 30.56 in 10.0 mi NNW 8.1 mph - N/A   Clear
3:55 PM 24.8 °F 20.5 °F 3.2 °F 40% 30.57 in 10.0 mi NNW 3.5 mph - N/A   Clear
4:15 PM 23.0 °F 13.9 °F 3.2 °F 43% 30.58 in 10.0 mi NNW 8.1 mph - N/A   Clear
4:35 PM 23.0 °F 14.7 °F 3.2 °F 43% 30.59 in 10.0 mi NNW 6.9 mph - N/A   Clear
4:55 PM 21.2 °F 12.6 °F 3.2 °F 46% 30.60 in 10.0 mi North 6.9 mph - N/A   Clear
5:15 PM 21.2 °F 11.7 °F 3.2 °F 46% 30.61 in 10.0 mi NW 8.1 mph - N/A   Clear
5:35 PM 21.2 °F 11.7 °F 3.2 °F 46% 30.62 in 10.0 mi NW 8.1 mph - N/A   Clear
5:55 PM 21.2 °F 12.6 °F 3.2 °F 46% 30.63 in 10.0 mi NW 6.9 mph - N/A   Clear
6:15 PM 19.4 °F 11.5 °F 5.0 °F 54% 30.64 in 10.0 mi NW 5.8 mph - N/A   Clear
6:35 PM 19.4 °F 9.5 °F 5.0 °F 54% 30.64 in 10.0 mi NNW 8.1 mph - N/A   Clear
6:55 PM 19.4 °F 11.5 °F 5.0 °F 54% 30.65 in 10.0 mi NNW 5.8 mph - N/A   Clear
7:15 PM 19.4 °F 10.4 °F 6.8 °F 58% 30.66 in 10.0 mi NNW 6.9 mph - N/A   Clear
7:35 PM 19.4 °F 10.4 °F 5.0 °F 54% 30.66 in 10.0 mi North 6.9 mph - N/A   Clear
7:55 PM 17.6 °F 9.3 °F 5.0 °F 58% 30.66 in 10.0 mi NNW 5.8 mph - N/A   Clear
8:15 PM 17.6 °F - 6.8 °F 63% 30.67 in 10.0 mi Calm Calm - N/A   Clear
8:35 PM 17.6 °F - 6.8 °F 63% 30.68 in 10.0 mi Calm Calm - N/A   Clear
8:55 PM 17.6 °F 12.3 °F 6.8 °F 63% 30.68 in 10.0 mi NW 3.5 mph - N/A   Clear
9:15 PM 15.8 °F - 5.0 °F 62% 30.68 in 10.0 mi Calm Calm - N/A   Clear
9:35 PM 17.6 °F 10.7 °F 6.8 °F 63% 30.69 in 10.0 mi NNW 4.6 mph - N/A   Clear
9:55 PM 17.6 °F 10.7 °F 6.8 °F 63% 30.70 in 10.0 mi NNW 4.6 mph - N/A   Clear
10:15 PM 15.8 °F 10.2 °F 6.8 °F 68% 30.70 in 10.0 mi NNW 3.5 mph - N/A   Clear
10:35 PM 15.8 °F - 6.8 °F 68% 30.70 in 10.0 mi Calm Calm - N/A   Clear
10:55 PM 14.0 °F - 6.8 °F 73% 30.71 in 10.0 mi Calm Calm - N/A   Clear
11:15 PM 14.0 °F - 6.8 °F 73% 30.71 in 10.0 mi Calm Calm - N/A   Clear
11:35 PM 15.8 °F - 6.8 °F 68% 30.72 in 10.0 mi Calm Calm - N/A   Clear
11:55 PM 15.8 °F - 6.8 °F 68% 30.72 in 10.0 mi Calm Calm - N/A   Clear